{"data":{"norad_id":55579,"epoch":"2026-05-25T03:05:46.116672Z","epoch_age_seconds":54058,"freshness":"FRESH","line1":"1 55579U 23020L   26145.12900598 -.00000311  00000+0 -17910-5 0  9999","line2":"2 55579  43.0039 293.4748 0001198 278.5564  81.5152 15.27576154180605","mean_motion":15.27576154,"eccentricity":0.0001198,"inclination_deg":43.0039,"raan_deg":293.4748,"arg_perigee_deg":278.5564,"mean_anomaly_deg":81.5152,"bstar":-1.791e-6,"rev_number":18060,"period_min":94.266986050373,"perigee_km":482.23864089744,"apogee_km":483.88258384537,"semimajor_km":6861.1976123714,"source":"CELESTRAK","updated_at":"2026-05-25T13:38:17.836345Z"}}